Portada
METAR-TAF:

METAR-TAF

Aeroports :

Utsunomiya, Japó

latitud: 36-31N, longitud: 139-52E, altitud: 102 m

Observació

L'informe es va fer fa 4 hores i 45 minuts, a les 04:30 UTC
Vent 12 kt del Nord amb ràfegues de 24 kt
Temperatura 7°C
Humitat 19%
Pressió 1027 hPa
Visibilitat 10 km o més
Escasses núvols a una alçada de 3000 ft
Núvols disperses a una alçada de 25000 ft

METAR: RJTU 270430Z 36012G24KT 9999 FEW030 SCT250 07/M15 Q1027 RMK 1CU030 3CI250 A3033

Hora: 18:15 (09:15 UTC)


TAF: manca

Observacions i pronòstics meteorològics de més de 4000 aeroports (METAR i TAF).

Les estacions disponibles són els punts grocs i vermells al mapa.

Posi el ratolí al punt desitjat per veure el nom de l'estació.

Feu clic per veure les observacions i els pronòstics meteorològics.

Per canviar el mapa: feu clic els botons verds amb una creu de color negre per apropar; al botó verd amb un guió per allunyar la imatge; o en les fletxes verdes per a mapes adjacents.


METAR-TAF: